Time,TemperatureF,DewpointF,PressureIn,WindDirection,WindDirectionDegrees,WindSpeedMPH,WindSpeedGustMPH,Humidity,HourlyPrecipIn,Conditions,Clouds,dailyrainin,SolarRadiationWatts/m^2,SoftwareType,DateUTC
2013-07-07 00:00:00,64.0,48.0,-100.00,South,189,5.0,9.0,56,0.00,,,0.00,0.000000,,2013-07-07 07:00:00,
2013-07-07 00:22:00,64.0,48.0,-100.00,South,189,5.0,9.0,56,0.00,,,0.00,0.000000,,2013-07-07 07:22:00,
2013-07-07 00:33:00,64.0,48.0,-100.00,South,189,5.0,9.0,56,0.00,,,0.00,0.000000,,2013-07-07 07:33:00,
2013-07-07 00:44:00,64.0,48.0,-100.00,South,189,5.0,9.0,56,0.00,,,0.00,0.000000,,2013-07-07 07:44:00,
2013-07-07 00:53:00,64.0,48.0,-100.00,South,189,5.0,9.0,56,0.00,,,0.00,0.000000,,2013-07-07 07:53:00,
2013-07-07 01:00:00,64.0,47.0,-100.00,SSW,199,6.0,11.0,54,0.00,,,0.00,0.000000,,2013-07-07 08:00:00,
2013-07-07 01:22:00,64.0,47.0,-100.00,SSW,199,6.0,11.0,54,0.00,,,0.00,0.000000,,2013-07-07 08:22:00,
2013-07-07 01:34:00,64.0,47.0,-100.00,SSW,199,6.0,11.0,54,0.00,,,0.00,0.000000,,2013-07-07 08:34:00,
2013-07-07 01:44:00,64.0,47.0,-100.00,SSW,199,6.0,11.0,54,0.00,,,0.00,0.000000,,2013-07-07 08:44:00,
2013-07-07 01:53:00,64.0,47.0,-100.00,SSW,199,6.0,11.0,54,0.00,,,0.00,0.000000,,2013-07-07 08:53:00,
2013-07-07 02:00:00,63.0,46.0,-100.00,SE,136,2.0,10.0,54,0.00,,,0.00,0.000000,,2013-07-07 09:00:00,
2013-07-07 02:22:00,63.0,46.0,-100.00,SE,136,2.0,10.0,54,0.00,,,0.00,0.000000,,2013-07-07 09:22:00,
2013-07-07 02:34:00,63.0,46.0,-100.00,SE,136,2.0,10.0,54,0.00,,,0.00,0.000000,,2013-07-07 09:34:00,
2013-07-07 02:43:00,63.0,46.0,-100.00,SE,136,2.0,10.0,54,0.00,,,0.00,0.000000,,2013-07-07 09:43:00,
2013-07-07 02:53:00,63.0,46.0,-100.00,SE,136,2.0,10.0,54,0.00,,,0.00,0.000000,,2013-07-07 09:53:00,
2013-07-07 03:00:00,64.0,46.0,-100.00,SSW,194,4.0,9.0,52,0.00,,,0.00,0.000000,,2013-07-07 10:00:00,
2013-07-07 03:23:00,64.0,46.0,-100.00,SSW,194,4.0,9.0,52,0.00,,,0.00,0.000000,,2013-07-07 10:23:00,
2013-07-07 03:32:00,64.0,46.0,-100.00,SSW,194,4.0,9.0,52,0.00,,,0.00,0.000000,,2013-07-07 10:32:00,
2013-07-07 03:43:00,64.0,46.0,-100.00,SSW,194,4.0,9.0,52,0.00,,,0.00,0.000000,,2013-07-07 10:43:00,
2013-07-07 03:52:00,64.0,46.0,-100.00,SSW,194,4.0,9.0,52,0.00,,,0.00,0.000000,,2013-07-07 10:52:00,
2013-07-07 04:00:00,61.0,45.0,-100.00,South,178,3.0,9.0,56,0.00,,,0.00,0.000000,,2013-07-07 11:00:00,
2013-07-07 04:23:00,61.0,45.0,-100.00,South,178,3.0,9.0,56,0.00,,,0.00,0.000000,,2013-07-07 11:23:00,
2013-07-07 04:34:00,61.0,45.0,-100.00,South,178,3.0,9.0,56,0.00,,,0.00,0.000000,,2013-07-07 11:34:00,
2013-07-07 04:43:00,61.0,45.0,-100.00,South,178,3.0,9.0,56,0.00,,,0.00,0.000000,,2013-07-07 11:43:00,
2013-07-07 04:53:00,61.0,45.0,-100.00,South,178,3.0,9.0,56,0.00,,,0.00,0.000000,,2013-07-07 11:53:00,
2013-07-07 05:22:00,63.0,47.0,-100.00,North,8,3.0,10.0,55,0.00,,,0.00,0.000000,,2013-07-07 12:22:00,
2013-07-07 05:34:00,63.0,47.0,-100.00,North,8,3.0,10.0,55,0.00,,,0.00,0.000000,,2013-07-07 12:34:00,
2013-07-07 06:00:00,62.0,46.0,-100.00,SE,142,3.0,8.0,55,0.00,,,0.00,1.000000,,2013-07-07 13:00:00,
2013-07-07 06:34:00,62.0,46.0,-100.00,SE,142,3.0,8.0,55,0.00,,,0.00,1.000000,,2013-07-07 13:34:00,
2013-07-07 06:43:00,62.0,46.0,-100.00,SE,142,3.0,8.0,55,0.00,,,0.00,1.000000,,2013-07-07 13:43:00,
2013-07-07 06:52:00,62.0,46.0,-100.00,SE,142,3.0,8.0,55,0.00,,,0.00,1.000000,,2013-07-07 13:52:00,
2013-07-07 07:00:00,64.0,49.0,-100.00,North,350,3.0,8.0,58,0.00,,,0.00,34.000000,,2013-07-07 14:00:00,
2013-07-07 07:22:00,64.0,49.0,-100.00,North,350,3.0,8.0,58,0.00,,,0.00,34.000000,,2013-07-07 14:22:00,
2013-07-07 07:34:00,64.0,49.0,-100.00,North,350,3.0,8.0,58,0.00,,,0.00,34.000000,,2013-07-07 14:34:00,
2013-07-07 07:43:00,64.0,49.0,-100.00,North,350,3.0,8.0,58,0.00,,,0.00,34.000000,,2013-07-07 14:43:00,
2013-07-07 07:53:00,64.0,49.0,-100.00,North,350,3.0,8.0,58,0.00,,,0.00,34.000000,,2013-07-07 14:53:00,
2013-07-07 08:00:00,71.0,48.0,-100.00,South,175,3.0,6.0,44,0.00,,,0.00,150.000000,,2013-07-07 15:00:00,
2013-07-07 08:22:00,71.0,48.0,-100.00,South,175,3.0,6.0,44,0.00,,,0.00,150.000000,,2013-07-07 15:22:00,
2013-07-07 08:34:00,71.0,48.0,-100.00,South,175,3.0,6.0,44,0.00,,,0.00,150.000000,,2013-07-07 15:34:00,
2013-07-07 08:43:00,71.0,48.0,-100.00,South,175,3.0,6.0,44,0.00,,,0.00,150.000000,,2013-07-07 15:43:00,
2013-07-07 08:52:00,71.0,48.0,-100.00,South,175,3.0,6.0,44,0.00,,,0.00,150.000000,,2013-07-07 15:52:00,
2013-07-07 09:00:00,75.0,48.0,-100.00,SSE,167,3.0,7.0,39,0.00,,,0.00,570.000000,,2013-07-07 16:00:00,
2013-07-07 09:34:00,75.0,48.0,-100.00,SSE,167,3.0,7.0,39,0.00,,,0.00,570.000000,,2013-07-07 16:34:00,
2013-07-07 09:43:00,75.0,48.0,-100.00,SSE,167,3.0,7.0,39,0.00,,,0.00,570.000000,,2013-07-07 16:43:00,
2013-07-07 09:53:00,75.0,48.0,-100.00,SSE,167,3.0,7.0,39,0.00,,,0.00,570.000000,,2013-07-07 16:53:00,
2013-07-07 10:00:00,78.0,47.0,-100.00,South,182,4.0,8.0,33,0.00,,,0.00,806.000000,,2013-07-07 17:00:00,
2013-07-07 10:22:00,78.0,47.0,-100.00,South,182,4.0,8.0,33,0.00,,,0.00,806.000000,,2013-07-07 17:22:00,
2013-07-07 10:34:00,78.0,47.0,-100.00,South,182,4.0,8.0,33,0.00,,,0.00,806.000000,,2013-07-07 17:34:00,
2013-07-07 10:43:00,78.0,47.0,-100.00,South,182,4.0,8.0,33,0.00,,,0.00,806.000000,,2013-07-07 17:43:00,
2013-07-07 10:53:00,78.0,47.0,-100.00,South,182,4.0,8.0,33,0.00,,,0.00,806.000000,,2013-07-07 17:53:00,
2013-07-07 11:00:00,79.0,44.0,-100.00,NNW,343,3.0,10.0,29,0.00,,,0.00,1012.000000,,2013-07-07 18:00:00,
2013-07-07 11:33:00,79.0,44.0,-100.00,NNW,343,3.0,10.0,29,0.00,,,0.00,1012.000000,,2013-07-07 18:33:00,
2013-07-07 11:43:00,79.0,44.0,-100.00,NNW,343,3.0,10.0,29,0.00,,,0.00,1012.000000,,2013-07-07 18:43:00,
2013-07-07 11:53:00,79.0,44.0,-100.00,NNW,343,3.0,10.0,29,0.00,,,0.00,1012.000000,,2013-07-07 18:53:00,
2013-07-07 12:00:00,82.0,44.0,-100.00,SE,133,4.0,10.0,26,0.00,,,0.00,1163.000000,,2013-07-07 19:00:00,
2013-07-07 12:22:00,82.0,44.0,-100.00,SE,133,4.0,10.0,26,0.00,,,0.00,1163.000000,,2013-07-07 19:22:00,
2013-07-07 12:34:00,82.0,44.0,-100.00,SE,133,4.0,10.0,26,0.00,,,0.00,1163.000000,,2013-07-07 19:34:00,
2013-07-07 12:43:00,82.0,44.0,-100.00,SE,133,4.0,10.0,26,0.00,,,0.00,1163.000000,,2013-07-07 19:43:00,
2013-07-07 12:54:00,82.0,44.0,-100.00,SE,133,4.0,10.0,26,0.00,,,0.00,1163.000000,,2013-07-07 19:54:00,
2013-07-07 13:00:00,85.0,42.0,-100.00,SSW,208,4.0,12.0,22,0.00,,,0.00,1253.000000,,2013-07-07 20:00:00,
2013-07-07 13:22:00,85.0,42.0,-100.00,SSW,208,4.0,12.0,22,0.00,,,0.00,1253.000000,,2013-07-07 20:22:00,
2013-07-07 13:34:00,85.0,42.0,-100.00,SSW,208,4.0,12.0,22,0.00,,,0.00,1253.000000,,2013-07-07 20:34:00,
2013-07-07 13:42:00,85.0,42.0,-100.00,SSW,208,4.0,12.0,22,0.00,,,0.00,1253.000000,,2013-07-07 20:42:00,
2013-07-07 13:53:00,85.0,42.0,-100.00,SSW,208,4.0,12.0,22,0.00,,,0.00,1253.000000,,2013-07-07 20:53:00,
2013-07-07 14:00:00,84.0,42.0,-100.00,NE,49,3.0,11.0,23,0.00,,,0.00,1287.000000,,2013-07-07 21:00:00,
2013-07-07 14:34:00,84.0,42.0,-100.00,NE,49,3.0,11.0,23,0.00,,,0.00,1287.000000,,2013-07-07 21:34:00,
2013-07-07 14:44:00,84.0,42.0,-100.00,NE,49,3.0,11.0,23,0.00,,,0.00,1287.000000,,2013-07-07 21:44:00,
2013-07-07 14:53:00,84.0,42.0,-100.00,NE,49,3.0,11.0,23,0.00,,,0.00,1287.000000,,2013-07-07 21:53:00,
2013-07-07 15:00:00,71.0,47.0,-100.00,NW,315,7.0,32.0,43,0.00,,,0.00,619.000000,,2013-07-07 22:00:00,
2013-07-07 15:34:00,71.0,47.0,-100.00,NW,315,7.0,32.0,43,0.00,,,0.00,619.000000,,2013-07-07 22:34:00,
2013-07-07 15:44:00,71.0,47.0,-100.00,NW,315,7.0,32.0,43,0.00,,,0.00,619.000000,,2013-07-07 22:44:00,
2013-07-07 15:53:00,71.0,47.0,-100.00,NW,315,7.0,32.0,43,0.00,,,0.00,619.000000,,2013-07-07 22:53:00,
2013-07-07 17:00:00,79.0,43.0,-100.00,NNW,330,2.0,7.0,28,-99.99,,,-99.99,301.000000,,2013-07-08 00:00:00,
2013-07-07 17:22:00,79.0,43.0,-100.00,NNW,330,2.0,7.0,28,-99.99,,,-99.99,301.000000,,2013-07-08 00:22:00,
2013-07-07 17:33:00,79.0,43.0,-100.00,NNW,330,2.0,7.0,28,-99.99,,,-99.99,301.000000,,2013-07-08 00:33:00,
2013-07-07 17:43:00,79.0,43.0,-100.00,NNW,330,2.0,7.0,28,-99.99,,,-99.99,301.000000,,2013-07-08 00:43:00,
2013-07-07 17:53:00,79.0,43.0,-100.00,NNW,330,2.0,7.0,28,-99.99,,,-99.99,301.000000,,2013-07-08 00:53:00,
2013-07-07 18:00:00,74.0,49.0,-100.00,ESE,117,2.0,7.0,42,0.00,,,0.01,546.000000,,2013-07-08 01:00:00,
2013-07-07 18:22:00,74.0,49.0,-100.00,ESE,117,2.0,7.0,42,0.00,,,0.01,546.000000,,2013-07-08 01:22:00,
2013-07-07 18:32:00,74.0,49.0,-100.00,ESE,117,2.0,7.0,42,0.00,,,0.01,546.000000,,2013-07-08 01:32:00,
2013-07-07 18:43:00,74.0,49.0,-100.00,ESE,117,2.0,7.0,42,0.00,,,0.01,546.000000,,2013-07-08 01:43:00,
2013-07-07 18:53:00,74.0,49.0,-100.00,ESE,117,2.0,7.0,42,0.00,,,0.01,546.000000,,2013-07-08 01:53:00,
2013-07-07 19:00:00,72.0,51.0,-100.00,NNW,337,2.0,7.0,48,0.00,,,0.01,130.000000,,2013-07-08 02:00:00,
2013-07-07 19:33:00,72.0,51.0,-100.00,NNW,337,2.0,7.0,48,0.00,,,0.01,130.000000,,2013-07-08 02:33:00,
2013-07-07 19:42:00,72.0,51.0,-100.00,NNW,337,2.0,7.0,48,0.00,,,0.01,130.000000,,2013-07-08 02:42:00,
2013-07-07 19:52:00,72.0,51.0,-100.00,NNW,337,2.0,7.0,48,0.00,,,0.01,130.000000,,2013-07-08 02:52:00,
2013-07-07 20:00:00,67.0,49.0,-100.00,NNE,27,2.0,7.0,52,0.00,,,0.01,59.000000,,2013-07-08 03:00:00,
2013-07-07 20:23:00,67.0,49.0,-100.00,NNE,27,2.0,7.0,52,0.00,,,0.01,59.000000,,2013-07-08 03:23:00,
2013-07-07 20:34:00,67.0,49.0,-100.00,NNE,27,2.0,7.0,52,0.00,,,0.01,59.000000,,2013-07-08 03:34:00,
2013-07-07 20:42:00,67.0,49.0,-100.00,NNE,27,2.0,7.0,52,0.00,,,0.01,59.000000,,2013-07-08 03:42:00,
2013-07-07 20:52:00,67.0,49.0,-100.00,NNE,27,2.0,7.0,52,0.00,,,0.01,59.000000,,2013-07-08 03:52:00,
2013-07-07 21:00:00,62.0,53.0,-100.00,NNE,33,4.0,18.0,73,0.02,,,0.03,20.000000,,2013-07-08 04:00:00,
2013-07-07 21:22:00,62.0,53.0,-100.00,NNE,33,4.0,18.0,73,0.02,,,0.03,20.000000,,2013-07-08 04:22:00,
2013-07-07 21:33:00,62.0,53.0,-100.00,NNE,33,4.0,18.0,73,0.02,,,0.03,20.000000,,2013-07-08 04:33:00,
2013-07-07 21:42:00,62.0,53.0,-100.00,NNE,33,4.0,18.0,73,0.02,,,0.03,20.000000,,2013-07-08 04:42:00,
2013-07-07 21:53:00,62.0,53.0,-100.00,NNE,33,4.0,18.0,73,0.02,,,0.03,20.000000,,2013-07-08 04:53:00,
2013-07-07 22:00:00,64.0,47.0,-100.00,NNE,21,3.0,7.0,54,0.00,,,0.03,0.000000,,2013-07-08 05:00:00,
2013-07-07 22:22:00,64.0,47.0,-100.00,NNE,21,3.0,7.0,54,0.00,,,0.03,0.000000,,2013-07-08 05:22:00,
2013-07-07 22:34:00,64.0,47.0,-100.00,NNE,21,3.0,7.0,54,0.00,,,0.03,0.000000,,2013-07-08 05:34:00,
2013-07-07 22:43:00,64.0,47.0,-100.00,NNE,21,3.0,7.0,54,0.00,,,0.03,0.000000,,2013-07-08 05:43:00,
2013-07-07 22:53:00,64.0,47.0,-100.00,NNE,21,3.0,7.0,54,0.00,,,0.03,0.000000,,2013-07-08 05:53:00,
2013-07-07 23:00:00,64.0,45.0,-100.00,North,11,0.0,5.0,51,0.00,,,0.03,0.000000,,2013-07-08 06:00:00,
2013-07-07 23:22:00,64.0,45.0,-100.00,North,11,0.0,5.0,51,0.00,,,0.03,0.000000,,2013-07-08 06:22:00,
2013-07-07 23:34:00,64.0,45.0,-100.00,North,11,0.0,5.0,51,0.00,,,0.03,0.000000,,2013-07-08 06:34:00,
2013-07-07 23:43:00,64.0,45.0,-100.00,North,11,0.0,5.0,51,0.00,,,0.03,0.000000,,2013-07-08 06:43:00,
2013-07-07 23:53:00,64.0,45.0,-100.00,North,11,0.0,5.0,51,0.00,,,0.03,0.000000,,2013-07-08 06:53:00,